Location: ECC Obs
(38.4314°N, 90.9815°W)
Time: 11:43:12
(UTC-05:00)

SR - Visible Passes

Search period start: 28 March 2020 00:00
Search period end: 07 April 2020 00:00
Orbit: 577 x 878 km, 66.7° (Epoch: 27 March)

Date Brightness Start Highest point End Pass type
(mag) Time Alt. Az. Time Alt. Az. Time Alt. Az.
28 Mar ? 05:52:40 10° ESE 05:54:27 11° ESE 05:56:13 10° E visible
30 Mar ? 05:52:19 10° SSE 05:56:46 23° ESE 06:01:07 10° ENE visible
31 Mar ? 05:06:29 10° ESE 05:07:30 10° ESE 05:08:30 10° E visible
01 Apr ? 05:53:45 10° S 05:59:14 42° ESE 06:04:32 10° NE visible
02 Apr ? 05:05:32 10° SSE 05:09:49 21° ESE 05:13:59 10° ENE visible
03 Apr ? 05:55:56 10° SSW 06:01:49 77° ESE 06:07:27 10° NNE visible
04 Apr ? 05:06:51 10° S 05:12:15 39° ESE 05:17:28 10° NE visible
05 Apr ? 04:18:45 10° SSE 04:22:50 20° ESE 04:26:50 10° ENE visible
05 Apr ? 05:58:44 10° SW 06:04:31 60° WNW 06:10:03 10° NNE visible
06 Apr ? 05:09:59 15° SSW 05:14:49 72° ESE 05:20:25 10° NNE visible
